COSMOS 1275 DEB, 18640

Orbit data source: Space-Track

COSMOS 1275 DEB, 18640 is space debris in LEO originally from a launch on Thu, 04 Jun 1981 UTC launched from the Plesetsk Missile And Space Complex (PKMTR). Debris objects in space refer to the collection of defunct objects orbiting the Earth. Examples of debris include non-operational satellites, rocket bodies, and fragments generated from explosions, collisions, or faulty payload assembly.

Loading next visibility...
Identifier
18640, 1981-053MA
Orbit
LEO
Country
Flag of CISCIS
Related business
Manufacturer
Unknown
Mission
Spacecraft
Bus & Motor
Unknown
Mass
Unknown
Launch date (UTC)
1981-06-04 (45 years ago)
Launch vehicle
Unknown
Launch site
Plesetsk Missile And Space Complex (PKMTR)
Object type
Payload
Rocket body
Debris
Shape & HBR
Unknown shape, 0.1 m
Radar Cross Section
Small (<0.1 m²)

Expand to show TLE details & history
Last TLE update: 1 day ago

TLE from 1 day ago
0 COSMOS 1275 DEB
1 18640U 81053MA  26067.22245918  .00002341  00000-0  19126-2 0  9991
2 18640  83.2067 153.8498 0087623 179.6502 210.0222 13.87461555 47770
Epoch: 2026-03-08T05:20Z
TLE epoch observation values (Epoch: 2026-03-08T05:20:20.473Z)
Latitude
28.99547°
Longitude
-88.4026°
Altitude
996.802 km
Speed
7.328 km/s
True Right ascension
10h 30m 27s
True Declination
28° 51' 17"
Sunlit
Object was in full shadow at epoch
Visualization orbit readout
Latitude
Unknown
Longitude
Unknown
Altitude
Unknown
Speed
Unknown
Apparent Right ascension
Unknown
Apparent Declination
Unknown
Sunlit
N/A
Visualization observer readout
Local Sidereal Time
18:34:42
Azimuth
Unknown
Elevation
Unknown
Doppler factor
Unknown
Orbital elements
Apogee altitude
998.738 km
Perigee altitude
870.585 km
Semi-major axis
7,312.799 km
Eccentricity
0.00876
Inclination
83.2067°
RAAN
153.8498°
Arg. of periapsis
179.6502°
True anomaly
209.52455°
Mean anomaly
210.0222°
Eccentric anomaly
209.7729°
Mean motion
3.47071 °/min
Orbital period
103.73 mins
BSTAR
0.0019126
Loading maneuver chart data...
Computing Atmospheric mass density...
Loading historical data...
Loading historical data...
Loading historical data...
Loading historical data...
Loading historical data...
Loading historical data...
Loading historical data...

Documentation

Showing up to 5 results
|